• In Russia
  • List of Countries
  • For 7 days
  • Water Temperature
  • Satellite Maps
  • Weather Map
  • Weather Widgets
  • user-avatar
    Login

    Hourly Weather Brisbane

    Today, 20 June, Thursday

    Time Temperature Precipitation Wind Pressure Humidity
    00:00 +15°C° 0 mm 2 mps 763 mmHg 84%
    01:00 +15°C° 0 mm 2 mps 763 mmHg 85%
    02:00 +14°C° 0 mm 2 mps 763 mmHg 85%
    03:00 +14°C° 0 mm 2 mps 762 mmHg 86%
    04:00 +14°C° 0 mm 2 mps 762 mmHg 87%
    05:00 +14°C° 0 mm 2 mps 763 mmHg 86%
    06:00 +14°C° 0 mm 2 mps 763 mmHg 86%
    07:00 +14°C° 0 mm 2 mps 764 mmHg 85%
    08:00 +15°C° 0 mm 2 mps 764 mmHg 76%
    09:00 +16°C° 0 mm 2 mps 764 mmHg 66%
    10:00 +18°C° 0 mm 3 mps 764 mmHg 58%
    11:00 +19°C° 0 mm 3 mps 763 mmHg 57%
    12:00 +19°C° 0 mm 3 mps 763 mmHg 55%
    13:00 +20°C° 0 mm 3 mps 762 mmHg 54%
    14:00 +20°C° 0 mm 3 mps 762 mmHg 57%
    15:00 +20°C° 0 mm 3 mps 762 mmHg 59%
    16:00 +20°C° 0 mm 1 mps 762 mmHg 64%
    17:00 +19°C° 0.1 mm 1 mps 762 mmHg 69%
    18:00 +18°C° 0.1 mm 2 mps 763 mmHg 74%
    19:00 +17°C° 0.1 mm 2 mps 763 mmHg 79%
    20:00 +17°C° 0.2 mm 2 mps 763 mmHg 81%
    21:00 +17°C° 0.2 mm 2 mps 763 mmHg 84%
    22:00 +16°C° 0.2 mm 2 mps 763 mmHg 86%
    23:00 +16°C° 0 mm 2 mps 763 mmHg 86%

    Tomorrow, 21 June, Friday

    Time Temperature Precipitation Wind Pressure Humidity
    00:00 +16°C° 0 mm 2 mps 763 mmHg 86%
    01:00 +16°C° 0 mm 2 mps 762 mmHg 85%
    02:00 +16°C° 0 mm 2 mps 762 mmHg 85%
    03:00 +16°C° 0 mm 2 mps 762 mmHg 84%
    04:00 +15°C° 0 mm 2 mps 762 mmHg 83%
    05:00 +15°C° 0 mm 2 mps 762 mmHg 83%
    06:00 +15°C° 0 mm 2 mps 762 mmHg 83%
    07:00 +14°C° 0 mm 2 mps 762 mmHg 83%
    08:00 +16°C° 0 mm 3 mps 762 mmHg 76%
    09:00 +17°C° 0 mm 3 mps 762 mmHg 68%
    10:00 +18°C° 0 mm 3 mps 762 mmHg 60%
    11:00 +19°C° 0 mm 3 mps 762 mmHg 54%
    12:00 +21°C° 0 mm 3 mps 761 mmHg 48%
    13:00 +22°C° 0 mm 3 mps 761 mmHg 41%
    14:00 +22°C° 0 mm 3 mps 761 mmHg 42%
    15:00 +21°C° 0 mm 2 mps 761 mmHg 43%
    16:00 +21°C° 0 mm 2 mps 761 mmHg 44%
    17:00 +19°C° 0.1 mm 2 mps 761 mmHg 47%
    18:00 +17°C° 0.1 mm 2 mps 762 mmHg 50%
    19:00 +15°C° 0.1 mm 2 mps 762 mmHg 53%
    20:00 +15°C° 0 mm 2 mps 763 mmHg 56%
    21:00 +13°C° 0 mm 3 mps 763 mmHg 59%
    22:00 +12°C° 0 mm 3 mps 764 mmHg 62%
    23:00 +12°C° 0 mm 3 mps 763 mmHg 66%

    Day after tomorrow, 22 June, Saturday

    Time Temperature Precipitation Wind Pressure Humidity
    00:00 +12°C° 0 mm 3 mps 763 mmHg 71%
    01:00 +11°C° 0 mm 3 mps 763 mmHg 75%
    02:00 +11°C° 0 mm 3 mps 763 mmHg 76%
    03:00 +10°C° 0 mm 3 mps 763 mmHg 77%
    04:00 +10°C° 0 mm 3 mps 763 mmHg 78%
    05:00 +10°C° 0 mm 3 mps 763 mmHg 75%
    06:00 +9°C° 0 mm 2 mps 764 mmHg 72%
    07:00 +9°C° 0 mm 2 mps 764 mmHg 69%
    08:00 +12°C° 0 mm 2 mps 764 mmHg 62%
    09:00 +13°C° 0 mm 3 mps 764 mmHg 55%
    10:00 +16°C° 0 mm 3 mps 765 mmHg 49%
    11:00 +17°C° 0 mm 3 mps 764 mmHg 46%
    12:00 +18°C° 0 mm 3 mps 763 mmHg 43%
    13:00 +20°C° 0 mm 3 mps 762 mmHg 41%
    14:00 +20°C° 0 mm 3 mps 763 mmHg 43%
    15:00 +19°C° 0 mm 3 mps 763 mmHg 46%
    16:00 +19°C° 0 mm 3 mps 763 mmHg 48%
    17:00 +17°C° 0 mm 3 mps 763 mmHg 55%
    18:00 +16°C° 0 mm 3 mps 764 mmHg 61%
    19:00 +13°C° 0 mm 3 mps 764 mmHg 68%
    20:00 +13°C° 0 mm 3 mps 764 mmHg 71%
    21:00 +13°C° 0 mm 2 mps 764 mmHg 74%
    22:00 +13°C° 0 mm 2 mps 765 mmHg 77%
    23:00 +12°C° 0 mm 2 mps 764 mmHg 78%

    23 June, Sunday

    Time Temperature Precipitation Wind Pressure Humidity
    00:00 +12°C° 0 mm 2 mps 764 mmHg 80%
    01:00 +12°C° 0 mm 2 mps 764 mmHg 81%
    02:00 +10°C° 0 mm 2 mps 764 mmHg 82%
    03:00 +10°C° 0 mm 2 mps 764 mmHg 82%
    04:00 +10°C° 0 mm 2 mps 764 mmHg 83%
    05:00 +10°C° 0 mm 2 mps 764 mmHg 81%
    06:00 +10°C° 0 mm 2 mps 764 mmHg 80%
    07:00 +10°C° 0 mm 2 mps 765 mmHg 79%
    08:00 +13°C° 0 mm 2 mps 765 mmHg 72%
    09:00 +14°C° 0 mm 2 mps 765 mmHg 65%
    10:00 +16°C° 0 mm 3 mps 765 mmHg 58%
    11:00 +17°C° 0 mm 3 mps 764 mmHg 57%
    12:00 +18°C° 0 mm 3 mps 764 mmHg 56%
    13:00 +18°C° 0 mm 3 mps 763 mmHg 54%
    14:00 +18°C° 0.2 mm 3 mps 763 mmHg 57%
    15:00 +17°C° 0.2 mm 3 mps 763 mmHg 59%
    16:00 +17°C° 0.2 mm 3 mps 763 mmHg 62%
    17:00 +16°C° 0.4 mm 3 mps 764 mmHg 66%
    18:00 +16°C° 0.4 mm 3 mps 764 mmHg 70%
    19:00 +14°C° 0.4 mm 3 mps 765 mmHg 73%
    20:00 +14°C° 0.1 mm 3 mps 765 mmHg 73%
    21:00 +13°C° 0.1 mm 3 mps 765 mmHg 73%
    22:00 +13°C° 0.1 mm 4 mps 765 mmHg 73%
    23:00 +13°C° 0 mm 3 mps 765 mmHg 75%

    24 June, Monday

    Time Temperature Precipitation Wind Pressure Humidity
    00:00 +13°C° 0 mm 3 mps 765 mmHg 76%
    01:00 +12°C° 0 mm 3 mps 765 mmHg 77%
    02:00 +12°C° 0 mm 3 mps 765 mmHg 80%
    03:00 +12°C° 0 mm 3 mps 765 mmHg 82%
    04:00 +12°C° 0 mm 3 mps 765 mmHg 85%
    05:00 +12°C° 0.1 mm 3 mps 765 mmHg 84%
    06:00 +12°C° 0.1 mm 3 mps 765 mmHg 83%
    07:00 +12°C° 0.1 mm 3 mps 766 mmHg 83%
    08:00 +13°C° 0.2 mm 3 mps 766 mmHg 78%
    09:00 +14°C° 0.2 mm 4 mps 766 mmHg 73%
    10:00 +17°C° 0.2 mm 4 mps 767 mmHg 68%
    11:00 +16°C° 0.6 mm 5 mps 766 mmHg 69%
    12:00 +16°C° 0.6 mm 5 mps 766 mmHg 69%
    13:00 +15°C° 0.6 mm 6 mps 766 mmHg 69%
    14:00 +15°C° 0.8 mm 6 mps 766 mmHg 71%
    15:00 +15°C° 0.8 mm 5 mps 766 mmHg 74%
    16:00 +15°C° 0.8 mm 5 mps 766 mmHg 77%
    17:00 +14°C° 0.1 mm 5 mps 767 mmHg 77%
    18:00 +14°C° 0.1 mm 4 mps 767 mmHg 78%
    19:00 +14°C° 0.1 mm 4 mps 768 mmHg 78%
    20:00 +14°C° 0 mm 4 mps 768 mmHg 80%
    21:00 +13°C° 0 mm 3 mps 768 mmHg 82%
    22:00 +13°C° 0 mm 3 mps 768 mmHg 84%
    23:00 +13°C° 0 mm 3 mps 768 mmHg 84%

    25 June, Tuesday

    Time Temperature Precipitation Wind Pressure Humidity
    00:00 +12°C° 0 mm 3 mps 768 mmHg 85%
    01:00 +12°C° 0 mm 4 mps 767 mmHg 86%
    02:00 +12°C° 0 mm 4 mps 767 mmHg 86%
    03:00 +12°C° 0 mm 3 mps 767 mmHg 86%
    04:00 +12°C° 0 mm 3 mps 767 mmHg 87%
    05:00 +11°C° 0.1 mm 3 mps 768 mmHg 87%
    06:00 +11°C° 0.1 mm 3 mps 768 mmHg 88%
    07:00 +11°C° 0.1 mm 3 mps 769 mmHg 89%
    08:00 +13°C° 0 mm 3 mps 769 mmHg 81%
    09:00 +15°C° 0 mm 4 mps 769 mmHg 73%
    10:00 +17°C° 0 mm 5 mps 769 mmHg 66%
    11:00 +19°C° 0 mm 5 mps 768 mmHg 60%
    12:00 +20°C° 0 mm 5 mps 768 mmHg 54%
    13:00 +21°C° 0 mm 6 mps 767 mmHg 49%
    14:00 +21°C° 0 mm 5 mps 767 mmHg 51%
    15:00 +20°C° 0 mm 5 mps 767 mmHg 53%
    16:00 +20°C° 0 mm 5 mps 767 mmHg 56%
    17:00 +17°C° 0.1 mm 5 mps 768 mmHg 61%
    18:00 +17°C° 0.1 mm 4 mps 768 mmHg 67%
    19:00 +15°C° 0.1 mm 4 mps 769 mmHg 73%
    20:00 +15°C° 0.1 mm 4 mps 769 mmHg 76%
    21:00 +14°C° 0.1 mm 4 mps 769 mmHg 79%
    22:00 +14°C° 0.1 mm 4 mps 769 mmHg 82%
    23:00 +13°C° 0.1 mm 4 mps 769 mmHg 83%
    Show more